Regional Weather Roundup
Issued by NWS Charleston, SC

Current Version | Previous Version | Text Only | Print | Product List | Glossary Off
Versions: 1 2 3 4 5 6 7 8 9 10 11 12 13 14 15 16 17 18 19 20 21 22 23 24 25 26 27 28 29 30 31 32 33 34 35 36 37 38 39 40 41 42 43 44 45 46 47 48 49 50

000
ASUS42 KCHS 210325
RWRCHS

REGIONAL WEATHER ROUNDUP
NATIONAL WEATHER SERVICE CHARLESTON SC
1100 PM EDT SUN APR 20 2014

NOTE: "FAIR" INDICATES FEW OR NO CLOUDS BELOW 12,000 FEET WITH NO
SIGNIFICANT WEATHER AND/OR OBSTRUCTIONS TO VISIBILITY.

NOT ALL STATIONS ARE QUALITY CONTROLLED BY THE NATIONAL
WEATHER SERVICE. USE DATA WITH CAUTION...ESPECIALLY
DEWPOINT OBSERVATIONS.

SCZ027-030-031-034>040-042>050-210400-
...SOUTH CAROLINA...

CITY           SKY/WX    TMP DP  RH WIND       PRES   REMARKS
N CHARLESTON   CLOUDY    63  51  65 NE15G25   30.12S
WATERFRONT PRK   N/A     61 N/A N/A N23         N/A
FORT JOHNSON     N/A     61  55  82 N13G23    30.16R
MOUNT PLEASANT CLOUDY   N/A N/A N/A N8G16     30.10F
JOHNS ISLAND   CLOUDY    63  55  77 N15G22    30.11S
PINOPOLIS        N/A     63  52  67 NE22      30.05R
MONCKS CORNER  FAIR      63  55  77 NE10G18   30.13R
SUMMERVILLE    NOT AVBL
BEAUFORT MCAS  CLOUDY    63  48  58 NE14      30.11F
BEAUFORT ARPT  MOCLDY    63  52  67 N14G20    30.11R
HILTON HEAD IS CLOUDY    63  52  67 N13       30.12S
GEORGETOWN     NOT AVBL
WALTERBORO     CLOUDY    61  50  67 N7        30.13S
ORANGEBURG     CLOUDY    63  44  50 N8        30.15S
BARNWELL       CLOUDY    63  45  51 N6        30.15F
AIKEN          FAIR      59  46  63 CALM      30.18F
MANNING        CLOUDY    63  36  36 NE7       30.14S
KINGSTREE      NOT AVBL
COLUMBIA       CLOUDY    65  41  41 NE7       30.16S
SUMTER         CLOUDY    59  47  64 N7        30.14S
FLORENCE       CLOUDY    62  48  60 NE12      30.16S
MYRTLE BEACH   CLOUDY    57  45  62 N21G29    30.10S
N MYRTLE BEACH CLOUDY    58  44  60 N14G24    30.10S

$$

GAZ063-065-086>088-099>101-113>116-118-119-134-136>141-150-210400-
...GEORGIA...

CITY           SKY/WX    TMP DP  RH WIND       PRES   REMARKS
SAVANNAH ARPT  PTCLDY    61  50  67 N7        30.12F
HUNTER AAF     CLOUDY    63  51  65 CALM      30.10S
FORT STEWART   PTCLDY    59  54  84 N3        30.11F
STATESBORO     NOT AVBL
SYLVANIA       CLOUDY    61  51  70 CALM      30.14F
CLAXTON        FAIR      55  55 100 CALM      30.13F
THOMSON        CLEAR     51  50  97 CALM      30.20F
AUGUSTA-BUSH   PTCLDY    59  44  57 N5        30.15S
AUGUSTA-DANIEL CLEAR     64  42  44 NE6       30.16S
SWAINSBORO     FAIR      55  52  88 CALM      30.15F
VIDALIA        MOCLDY    61  52  72 NE3       30.14F
ALMA           CLOUDY    63  53  70 NE5       30.13S
WAYCROSS       NOT AVBL
JESUP          FAIR      59  54  82 CALM      30.13S
BRUNSWICK      CLOUDY    61  55  82 CALM      30.12S
SAINT SIMONS   CLOUDY    61  57  87 CALM      30.11F

$$

SCZ027-028-034-036>038-045-046-048>050-GAZ119-141-210400-
...LAKE AND SUPPLEMENTAL COASTAL OBSERVATIONS...

STATION/POSITION TIME  TEMP    WIND        PRES    WAVE   SWELL
                       AIR SEA DIR/SP/G            HT/PER HT/PER/DIR
                 (UTC) (F)     (DEG/KT/KT) (MB)    (FT/S) (FT/S/D)
UPR LAKE MARION  NOT AVBL
WINYAH BAY       0300   59     360/  8     1019.0S
LAKE MURRAY      0300   62      20/  1/  3 1021.0S
ACE BASIN NERRS  0300   62      10/  3     1019.0F
FORT PULASKI     0300   63 58  360/ 11/ 13 1019.5F
SAPELO ISLAND    0300   61      20/  4     1019.0F

$$

ANZ835-935-AMZ111-154-330-350-352-354-374-450-454-472-210400-
...C-MAN AND BUOY OBSERVATIONS...

STATION/POSITION TIME  TEMP    WIND        PRES    WAVE   SWELL
                       AIR SEA DIR/SP/G            HT/PER HT/PER/DIR
                 (UTC) (F)     (DEG/KT/KT) (MB)    (FT/S) (FT/S/D)
FOLLY BEACH CMAN 0300   60      20/ 16/ 19 1019.8S
BUOY 41004       NOT AVBL
BUOY 41008       0300   64 63   20/ 17/ 21 1018.8F   5/11   3/100/11
5E ST. MARYS GA  0300      63                N/A     5/ 6   2/ 80/11
FRYING PAN BUOY  0300   58 69   20/ 31/ 39 1015.8R  12/ 8   2/340/17
BUOY 41025       0300   59 76   10/ 31/ 37 1014.8S  15/11  10/ 50/11
CAPE LOOKOUT NC  0300   52     360/ 26/ 30 1017.9F
BUOY 41002       NOT AVBL
BUOY 41010       0300   71 75  330/ 19/ 23 1014.8S   8/ 9   7/ 20/ 9
BUOY 41012       NOT AVBL
ST AUGUSTINE FL  0300   61     320/  6/  7 1020.1R
CAPERS NEARSHORE NOT AVBL
FRIPP NEARSHORE  0200   63      10/ 16/ 19   N/A


$$



USA.gov is the U.S. government's official web portal to all federal, state and local government web resources and services.